Location: Lombard
(41.8800°N, 88.0080°W)
Time: 14:31:39
(UTC-05:00)

FALCONSAT 3 - Visible Passes

Search period start: 16 May 2022 00:00
Search period end: 26 May 2022 00:00
Orbit: 412 x 415 km, 35.4° (Epoch: 16 May)

Date Brightness Start Highest point End Pass type
(mag) Time Alt. Az. Time Alt. Az. Time Alt. Az.
16 May ? 20:58:42 10° SW 21:01:22 22° SSE 21:03:12 15° SE visible
16 May ? 22:35:56 10° WSW 22:35:59 10° WSW 22:35:59 10° WSW visible
17 May ? 21:45:01 10° WSW 21:47:47 27° S 21:47:47 27° S visible
18 May ? 20:54:05 10° WSW 20:56:58 26° S 20:59:25 13° ESE visible
18 May ? 22:31:47 10° WSW 22:32:11 12° WSW 22:32:11 12° WSW visible
19 May ? 21:40:37 10° WSW 21:43:22 23° S 21:43:39 23° S visible
20 May ? 20:49:25 10° WSW 20:52:16 25° S 20:54:59 11° SE visible
21 May ? 21:36:15 10° WSW 21:38:26 16° SSW 21:38:59 16° S visible
22 May ? 20:44:45 10° WSW 20:47:13 19° SSW 20:49:41 10° SE visible
